Printer-friendly version

IAU Minor Planet Center

Minor Planet Center

MPEC 2004-G03 : 2002 CT11

The following Minor Planet Electronic Circular may be linked-to from your own Web pages, but must not otherwise be redistributed electronically.


Read MPEC 2004-G02 Read MPEC 2004-G04


M.P.E.C. 2004-G03                                Issued 2004 Apr. 1, 21:37 UT

     The Minor Planet Electronic Circulars contain information on unusual
         minor planets and routine data on comets.  They are published
   on behalf of Commission 20 of the International Astronomical Union by the
          Minor Planet Center, Smithsonian Astrophysical Observatory,
                          Cambridge, MA 02138, U.S.A.

         Supported in part by the Steven and Michele Kirsch Foundation
             Prepared using the Tamkin Foundation Computer Network

                              MPC@CFA.HARVARD.EDU
          URL http://cfa-www.harvard.edu/iau/mpc.html  ISSN 1523-6714

                                   2002 CT11

                           Revision to MPEC 2002-C42

Additional Observations:
     K02C11T  C2004 03 29.67682 17 41 48.04 -79 00 00.1          20.1 R EG003474
     K02C11T  C2004 03 29.67855 17 41 49.07 -79 00 04.6          19.7 R EG003474
     K02C11T  C2004 03 29.68006 17 41 48.70 -79 00 08.0          19.8 R EG003474
     K02C11T IC2004 03 29.68155 17 41 49.98 -79 00 11.3                 EG003474
     K02C11T IC2004 03 29.68527 17 41 51.43 -79 00 20.7                 EG003474
     K02C11T  C2004 03 30.62819 17 47 33.52 -79 38 17.5          18.9 R EG003474
     K02C11T  C2004 03 30.63039 17 47 34.31 -79 38 23.3          18.8 R EG003474
     K02C11T  C2004 03 30.63225 17 47 34.84 -79 38 27.9          18.5 R EG003474

Observer details:
474 Mount John Observatory, Lake Tekapo.  Observer A. C. Gilmore.  Measurer
    P. M. Kilmartin.  1.0-m f/7.7 reflector + CCD.

First and last observations above in comparison with prediction:
Residuals in seconds of arc, reference and Delta-T
040329 474 23.0-  1.7-    040330 474 22.7-  2.0-    MPO 30637   +0.017 day

Orbital elements:
2002 CT11
Epoch 2004 July 14.0 TT = JDT 2453200.5                 MPC
M 321.86119              (2000.0)            P               Q
n   0.69843879     Peri.   24.82924     +0.87612799     -0.47437997
a   1.2581057      Node     6.09834     +0.17938595     +0.15559116
e   0.5381748      Incl.   53.87537     +0.44745996     +0.86646122
P   1.41           H   17.0           G   0.15           U   4
Residuals in seconds of arc
020206 704  0.1+  0.5+    020306 704  1.3+  0.1+    020401 151  0.2-  1.2-
020206 704  0.2-  0.1-    020306 333  0.5-  0.4+    020401 151  0.5-  0.4-
020206 704  0.1+  0.3+    020306 333  0.6-  0.2+    020401 151  0.3-  0.3+
020206 704  0.1+  0.1+    020306 704  1.2+  0.4+    020401 151  0.2-  0.2+
020206 704  0.3-  0.4-    020306 333  0.1-  0.2+    020401 151  0.0   0.2-
020207 704  0.2+  0.5+    020306 333  0.3+  0.6-    020402 644  0.1+  0.3+
020207 704  0.0   0.4+    020306 704  0.4+  0.4+    020402 644  0.0   0.1-
020207 704  1.1+  0.1-    020308 587  0.0   0.0     020402 644  0.3+  0.0
020207 704  0.1+  0.5+    020308 587  0.1+  0.3-    020402 644  0.2-  0.1+
020207 704  0.8+  0.4+    020308 587  0.5-  0.5-    020402 644  0.1+  0.1+
020207 704  0.3+  0.1-    020309 118  0.1+  0.1+    020402 644  0.3-  0.2+
020207 704  1.0+  0.1-    020309 118  0.1+  0.2-    020402 113  0.3-  0.3-
020207 704  0.3+  0.3+    020309 670  0.3+  0.1+    020402 113  0.2+  0.5+
020207 704  0.0   0.7+    020309 670  0.1-  1.3+    020402 113  0.1-  0.1+
020207 704  0.0   0.4+    020311 118  0.0   0.2+    020402 113  0.1-  0.7+
020208 704  0.5-  0.3-    020311 118  0.1-  0.4+    020402 113  0.3+  0.1-
020208 704  0.2-  0.0     020311 118  0.1-  0.3+    020402 071  1.0+  0.5-
020208 704  1.1-  0.2-    020312 670  0.3-  0.2+    020402 071  0.2+  1.0-
020208 704  0.2+  0.4+    020312 670  1.4+  0.0     020402 071 (3.8-  4.8-)
020208 649  0.0   0.1+    020312 670  2.4+  0.5+    020403 151  1.7+  2.7-
020208 704  0.6-  0.1-    020315 333  0.6-  0.4-    020403 151  0.8+  1.0-
020208 649  0.3-  0.4+    020315 333  0.2-  0.0     020403 151  0.1+  0.2-
020208 649  1.6+  1.0-    020315 333  0.6-  0.3-    020403 151  0.0   0.1+
020214 696  0.0   0.2+    020315 333  0.7-  0.5-    020404 185  0.9+  0.1+
020214 696  0.4-  0.1+    020315 333  0.1+  0.9+    020404 185  0.3-  0.3-
020214 649  0.4+  0.3-    020315 333  1.1+  0.6+    020404 185  0.0   0.4-
020214 649  0.1-  0.6-    020315 333  0.5+  0.6+    020404 185  0.4-  0.1-
020214 649  0.6-  0.4-    020315 333  0.1-  0.1+    020404 185  0.1-  0.3-
020215 118  0.0   0.6+    020315 333  1.0+  0.3-    020408 422  0.1+  0.6-
020215 118  0.2+  0.4+    020315 333  0.8-  0.2+    020408 422  0.4-  0.2+
020215 118  0.4+  0.4+    020315 670  0.4-  0.4+    020408 422  0.0   0.3+
020219 333  0.2+  2.0-    020315 670  0.9+  0.2-    020411 699  0.2+  0.5-
020219 333  0.3-  0.4-    020316 113  0.6-  0.3+    020411 699  0.1-  0.7+
020219 333  0.6+  0.3-    020316 113  0.2+  0.6+    020411 699  0.3+  0.3+
020219 333  0.2+  0.5-    020316 113  0.3-  0.3+    020411 699  0.5-  0.4+
020219 333  0.4+  1.5-    020316 113  0.6-  0.1+    020415 704  0.1-  0.4-
020219 333  0.3+  0.6-    020316 113  0.4+  0.3+    020415 704  0.2-  1.5-
020219 413  0.2+  0.7-    020318 113  0.2+  0.3+    020415 704  0.1-  1.7-
020219 413  0.2+  0.7-    020318 113  0.2+  0.2+    020416 704  0.0   0.2+
020225 761  0.4+  0.5-    020318 113  0.3+  0.2+    020416 704  0.5+  0.3+
020225 761  1.6-  1.4-    020319 118  0.2-  0.3-    020416 704  0.2+  0.5-
020225 761  1.8-  0.6-    020319 118  0.2-  0.5+    020416 704  0.2+  0.1-
020303 649  0.4-  0.2-    020319 118  0.2+  0.0     020416 704  0.2+  0.3-
020303 649  0.1-  0.2-    020319 644  0.4-  0.0     020417 704  0.5+  0.4-
020303 649  0.3-  0.1-    020319 644  0.0   0.1+    020417 704  0.1+  0.4+
020303 151  1.6-  0.8+    020319 644  0.1-  0.1+    020417 704  0.8+  0.8+
020303 151  0.8-  0.1-    020321 704  0.8-  0.9-    020417 704  0.2+  0.1-
020303 151  0.1-  0.2+    020321 704  0.5-  1.1-    020417 704  0.3-  0.3-
020303 151  0.5+  0.3-    020321 704  0.5+  2.0+    020417 704  1.2+  0.2-
020303 151  0.6+  0.3-    020321 704  0.9-  1.1-    020417 704  0.3+  0.5+
020303 151  0.4-  1.1-    020321 704  0.5+  1.9+    020417 704  0.3+  0.1+
020304 215  0.5+  0.3+    020321 704  1.0-  0.4-    020417 704  0.8+  0.6+
020304 215  0.9-  0.3+    020321 704  0.5+  2.4+    020417 704  0.3+  0.0
020304 215  0.2-  0.5-    020321 704  0.5+  2.4+    020518 715  0.3+  0.3-
020305 198 (4.0-  0.5-)   020321 704  0.4+  2.1+    020518 715  0.5+  0.1+
020305 198  0.4-  0.1+    020325 670  1.5+  0.8+    040329 474  0.7-  0.3-
020305 198  1.6+  0.3+    020325 670  0.3+  0.7-    040329 474  0.6+  0.6-
020306 333  0.4-  1.5+    020331 644  0.0   0.2+    040329 474  1.9-  0.3-
020306 333  1.8-  0.2+    020331 644  0.1-  0.3+    040329 474  0.3+  0.0
020306 333  0.9-  0.1-    020331 644  0.3-  0.3+    040329 474  0.9+  0.3-
020306 704  1.8+  0.8-    020401 644  0.2-  0.9+    040330 474  0.4+  0.5+
020306 333  0.2-  0.0     020401 644  0.1+  1.0+    040330 474  0.3+  0.1+
020306 333  0.8-  0.4-    020401 644  0.1-  0.9+    040330 474  0.1-  0.0

Ephemeris:
2002 CT11                a,e,i = 1.26, 0.54, 54                  q = 0.5810
Date    TT    R. A. (2000) Decl.     Delta      r     Elong.  Phase     V
2004 03 26    17 23.6    -76 31.6    1.343    1.747    95.5    34.6    20.3
2004 04 05    18 35.8    -83 09.9    1.268    1.704    96.7    35.7    20.1
2004 04 15    00 19      -86 29.6    1.209    1.656    96.5    37.0    20.0
2004 04 25    03 43.9    -80 56.0    1.165    1.602    94.9    38.7    19.9
2004 05 05    04 33.6    -74 16.6    1.133    1.544    92.1    40.8    19.8
2004 05 15    05 00.19   -67 54.8    1.110    1.480    88.4    43.0    19.7
2004 05 25    05 19.48   -62 04.4    1.090    1.412    84.2    45.6    19.7
2004 06 04    05 35.24   -56 48.1    1.068    1.337    79.8    48.3    19.6
2004 06 14    05 48.90   -52 01.4    1.040    1.257    75.4    51.4    19.5
2004 06 24    06 01.11   -47 35.0    1.001    1.172    71.0    55.1    19.4
2004 07 04    06 12.29   -43 11.6    0.947    1.082    66.7    59.7    19.2
2004 07 14    06 23.08   -38 23.1    0.876    0.987    62.3    65.8    19.0

Timothy B. Spahr             (C) Copyright 2004 MPC           M.P.E.C. 2004-G03

Read MPEC 2004-G02 Read MPEC 2004-G04


Our Web policy. Index to the CBAT/MPC/ICQ pages.


Valid HTML 4.01!